N99TT YWBL-YPAD

Flight info

Callsign N99TT
Flight time 0h 47m
Altitude 40000
Route GRACY T234 BORTO H345 DRINA
Aircraft C750/M-SBDE3FGHRWXY/S

Departure

Time 2026-04-23 06:58
Airport Warrnambool Airport (YWBL)

Arrival

Time 2026-04-23 07:45
Airport Adelaide International Airport (YPAD)
Time Latitude Longitude Altitude Speed Heading
2026-04-23 06:45 -38.29909 142.44965 226 ft 0 kts 259°
2026-04-23 06:54 -38.29910 142.44961 226 ft 0 kts 259°
2026-04-23 06:54 -38.29910 142.44960 226 ft 0 kts 259°
2026-04-23 06:54 -38.29910 142.44959 227 ft 0 kts 262°
2026-04-23 06:55 -38.29900 142.44955 227 ft 2 kts 65°
2026-04-23 06:55 -38.29883 142.44992 227 ft 7 kts 14°
2026-04-23 06:55 -38.29866 142.44997 227 ft 0 kts 22°
2026-04-23 06:56 -38.29859 142.45001 227 ft 4 kts 37°
2026-04-23 06:56 -38.29837 142.45030 228 ft 4 kts 47°
2026-04-23 06:57 -38.29818 142.45090 228 ft 10 kts 119°
2026-04-23 06:57 -38.29878 142.45152 227 ft 10 kts 158°
2026-04-23 06:57 -38.29895 142.45177 227 ft 3 kts 20°
2026-04-23 06:57 -38.29859 142.45140 227 ft 27 kts 319°
2026-04-23 06:58 -38.29421 142.44638 238 ft 135 kts 320°
2026-04-23 06:58 -38.28585 142.43675 731 ft 183 kts 321°
2026-04-23 06:58 -38.27539 142.42708 1954 ft 197 kts 335°
2026-04-23 06:58 -38.26400 142.41855 3315 ft 201 kts 328°
2026-04-23 06:59 -38.25239 142.40819 4459 ft 214 kts 327°
2026-04-23 06:59 -38.24017 142.39703 5548 ft 229 kts 326°
2026-04-23 06:59 -38.22711 142.38496 6590 ft 244 kts 326°
2026-04-23 06:59 -38.21294 142.37180 7590 ft 261 kts 325°
2026-04-23 07:00 -38.19820 142.35809 8612 ft 274 kts 324°
2026-04-23 07:00 -38.18288 142.34386 9777 ft 279 kts 324°
2026-04-23 07:00 -38.16710 142.32919 10855 ft 288 kts 324°
2026-04-23 07:00 -38.15060 142.31386 11683 ft 303 kts 324°
2026-04-23 07:01 -38.13347 142.29796 12530 ft 316 kts 324°
2026-04-23 07:01 -38.11564 142.28145 13551 ft 322 kts 324°
2026-04-23 07:01 -38.09747 142.26462 14562 ft 328 kts 323°
2026-04-23 07:01 -38.08499 142.25307 15221 ft 332 kts 323°
2026-04-23 07:02 -38.06006 142.23000 16455 ft 340 kts 323°
2026-04-23 07:02 -38.04098 142.21236 17344 ft 346 kts 323°
2026-04-23 07:02 -38.02129 142.19414 18207 ft 352 kts 323°
2026-04-23 07:02 -38.00140 142.17578 19062 ft 358 kts 323°
2026-04-23 07:03 -37.98148 142.15739 19888 ft 362 kts 323°
2026-04-23 07:03 -37.96096 142.13846 20705 ft 367 kts 323°
2026-04-23 07:03 -37.94018 142.11935 21487 ft 372 kts 322°
2026-04-23 07:03 -37.91920 142.10002 22249 ft 377 kts 322°
2026-04-23 07:04 -37.89783 142.08037 22985 ft 382 kts 322°
2026-04-23 07:04 -37.87652 142.06081 23688 ft 386 kts 322°
2026-04-23 07:04 -37.85457 142.04065 24409 ft 390 kts 322°
2026-04-23 07:04 -37.83247 142.02039 25097 ft 394 kts 322°
2026-04-23 07:05 -37.81050 142.00023 25749 ft 398 kts 322°
2026-04-23 07:05 -37.79199 141.98326 26275 ft 401 kts 322°
2026-04-23 07:05 -37.76944 141.96257 26884 ft 405 kts 322°
2026-04-23 07:05 -37.74670 141.94176 27502 ft 408 kts 322°
2026-04-23 07:06 -37.72349 141.92055 28097 ft 412 kts 322°
2026-04-23 07:06 -37.70021 141.89926 28682 ft 415 kts 322°
2026-04-23 07:06 -37.67646 141.87759 29230 ft 419 kts 322°
2026-04-23 07:06 -37.65273 141.85593 29776 ft 422 kts 321°
2026-04-23 07:07 -37.62911 141.83441 30284 ft 425 kts 321°
2026-04-23 07:07 -37.60486 141.81232 30748 ft 429 kts 321°
2026-04-23 07:07 -37.58055 141.79018 31219 ft 433 kts 321°
2026-04-23 07:07 -37.55623 141.76805 31678 ft 436 kts 321°
2026-04-23 07:08 -37.53141 141.74550 32126 ft 440 kts 321°
2026-04-23 07:08 -37.50677 141.72313 32549 ft 443 kts 321°
2026-04-23 07:08 -37.48157 141.70029 32975 ft 446 kts 321°
2026-04-23 07:08 -37.45627 141.67735 33377 ft 450 kts 321°
2026-04-23 07:09 -37.43083 141.65431 33795 ft 453 kts 321°
2026-04-23 07:09 -37.40552 141.63142 34218 ft 456 kts 321°
2026-04-23 07:09 -37.37954 141.60792 34654 ft 459 kts 321°
2026-04-23 07:09 -37.35368 141.58456 35252 ft 458 kts 321°
2026-04-23 07:10 -37.32919 141.55953 35866 ft 455 kts 316°
2026-04-23 07:10 -37.30286 141.53751 36513 ft 456 kts 324°
2026-04-23 07:10 -37.27673 141.51556 37123 ft 454 kts 321°
2026-04-23 07:10 -37.25084 141.49292 37670 ft 453 kts 321°
2026-04-23 07:11 -37.22521 141.47025 38219 ft 452 kts 321°
2026-04-23 07:11 -37.19965 141.44763 38739 ft 452 kts 321°
2026-04-23 07:11 -37.17390 141.42484 39248 ft 452 kts 321°
2026-04-23 07:12 -37.12273 141.37956 40206 ft 451 kts 320°
2026-04-23 07:12 -37.07086 141.33369 40288 ft 464 kts 321°
2026-04-23 07:13 -37.01746 141.28661 40289 ft 478 kts 321°
2026-04-23 07:13 -36.97168 141.24631 40291 ft 489 kts 321°
2026-04-23 07:14 -36.90597 141.18857 40295 ft 503 kts 321°
2026-04-23 07:14 -36.84796 141.13771 40287 ft 514 kts 321°
2026-04-23 07:15 -36.78945 141.08650 40284 ft 518 kts 322°
2026-04-23 07:15 -36.73005 141.03465 40285 ft 520 kts 321°
2026-04-23 07:16 -36.67108 140.98323 40281 ft 521 kts 321°
2026-04-23 07:16 -36.61196 140.93178 40281 ft 521 kts 321°
2026-04-23 07:17 -36.55257 140.88017 40276 ft 521 kts 321°
2026-04-23 07:17 -36.49293 140.82849 40276 ft 521 kts 321°
2026-04-23 07:18 -36.43359 140.77713 40278 ft 521 kts 321°
2026-04-23 07:18 -36.37888 140.72026 40288 ft 509 kts 304°
2026-04-23 07:19 -36.33518 140.65082 40287 ft 511 kts 304°
2026-04-23 07:19 -36.29123 140.58141 40264 ft 512 kts 304°
2026-04-23 07:20 -36.24752 140.51257 40266 ft 512 kts 304°
2026-04-23 07:20 -36.20359 140.44353 40264 ft 512 kts 304°
2026-04-23 07:21 -36.15951 140.37433 40262 ft 511 kts 304°
2026-04-23 07:21 -36.11563 140.30565 40266 ft 511 kts 305°
2026-04-23 07:22 -36.07166 140.23694 40270 ft 511 kts 305°
2026-04-23 07:22 -36.02749 140.16805 40265 ft 511 kts 305°
2026-04-23 07:23 -35.98357 140.09972 40290 ft 496 kts 305°
2026-04-23 07:23 -35.96965 140.07812 40221 ft 477 kts 305°
2026-04-23 07:23 -35.94292 140.03661 39550 ft 455 kts 304°
2026-04-23 07:23 -35.92355 140.00652 38278 ft 454 kts 305°
2026-04-23 07:24 -35.91038 139.98604 37346 ft 452 kts 305°
2026-04-23 07:24 -35.89097 139.95599 36421 ft 452 kts 305°
2026-04-23 07:24 -35.87154 139.92595 35544 ft 452 kts 305°
2026-04-23 07:24 -35.84575 139.88606 34588 ft 446 kts 305°
2026-04-23 07:25 -35.83285 139.86616 34168 ft 442 kts 305°
2026-04-23 07:25 -35.80744 139.82690 33388 ft 440 kts 305°
2026-04-23 07:25 -35.79467 139.80722 32995 ft 441 kts 305°
2026-04-23 07:25 -35.76923 139.76802 32187 ft 441 kts 306°
2026-04-23 07:26 -35.75017 139.73866 31575 ft 441 kts 306°
2026-04-23 07:26 -35.73120 139.70950 30977 ft 438 kts 306°
2026-04-23 07:26 -35.71837 139.68979 30584 ft 436 kts 306°
2026-04-23 07:26 -35.69975 139.66121 29993 ft 434 kts 306°
2026-04-23 07:27 -35.68091 139.63229 29361 ft 432 kts 306°
2026-04-23 07:27 -35.65565 139.59358 28393 ft 432 kts 306°
2026-04-23 07:27 -35.63715 139.56529 27666 ft 425 kts 306°
2026-04-23 07:27 -35.61890 139.53735 27017 ft 414 kts 306°
2026-04-23 07:28 -35.60108 139.51015 26445 ft 403 kts 306°
2026-04-23 07:28 -35.58374 139.48363 25904 ft 392 kts 306°
2026-04-23 07:28 -35.57258 139.46658 25543 ft 388 kts 306°
2026-04-23 07:28 -35.55019 139.43239 24759 ft 385 kts 306°
2026-04-23 07:29 -35.53913 139.41551 24328 ft 385 kts 307°
2026-04-23 07:29 -35.52222 139.38974 23641 ft 385 kts 307°
2026-04-23 07:29 -35.50561 139.36447 22976 ft 384 kts 307°
2026-04-23 07:29 -35.48891 139.33908 22321 ft 383 kts 307°
2026-04-23 07:30 -35.47229 139.31381 21684 ft 381 kts 307°
2026-04-23 07:30 -35.45576 139.28870 21053 ft 379 kts 308°
2026-04-23 07:30 -35.43374 139.25523 20203 ft 377 kts 308°
2026-04-23 07:30 -35.41450 139.23337 19540 ft 377 kts 328°
2026-04-23 07:31 -35.39866 139.22458 19159 ft 376 kts 339°
2026-04-23 07:31 -35.37436 139.21349 18546 ft 374 kts 339°
2026-04-23 07:31 -35.34207 139.19852 17718 ft 372 kts 339°
2026-04-23 07:31 -35.31764 139.18720 17127 ft 369 kts 339°
2026-04-23 07:32 -35.29609 139.17166 16837 ft 358 kts 317°
2026-04-23 07:32 -35.28067 139.14822 16466 ft 350 kts 303°
2026-04-23 07:32 -35.27326 139.13106 16250 ft 345 kts 292°
2026-04-23 07:32 -35.26658 139.10288 15914 ft 339 kts 282°
2026-04-23 07:33 -35.26096 139.06576 15495 ft 332 kts 279°
2026-04-23 07:33 -35.25870 139.04700 15294 ft 329 kts 278°
2026-04-23 07:33 -35.25564 139.01944 14988 ft 334 kts 277°
2026-04-23 07:33 -35.25159 138.98117 14570 ft 344 kts 277°
2026-04-23 07:34 -35.24957 138.96173 14357 ft 348 kts 277°
2026-04-23 07:34 -35.24657 138.93248 14067 ft 352 kts 277°
2026-04-23 07:34 -35.24350 138.90269 13738 ft 351 kts 277°
2026-04-23 07:34 -35.23945 138.86357 13270 ft 347 kts 277°
2026-04-23 07:35 -35.23644 138.83460 12909 ft 344 kts 277°
2026-04-23 07:35 -35.23446 138.81549 12629 ft 345 kts 277°
2026-04-23 07:35 -35.23143 138.78641 12110 ft 347 kts 277°
2026-04-23 07:35 -35.22736 138.74753 11302 ft 338 kts 278°
2026-04-23 07:36 -35.22447 138.71976 10656 ft 326 kts 277°
2026-04-23 07:36 -35.22255 138.70171 10254 ft 320 kts 277°
2026-04-23 07:36 -35.21982 138.67549 10040 ft 297 kts 277°
2026-04-23 07:36 -35.21730 138.65150 9970 ft 275 kts 278°
2026-04-23 07:37 -35.21487 138.62845 9725 ft 273 kts 278°
2026-04-23 07:37 -35.21241 138.60522 9100 ft 280 kts 278°
2026-04-23 07:37 -35.20991 138.58151 8453 ft 284 kts 278°
2026-04-23 07:37 -35.20738 138.55766 7804 ft 287 kts 278°
2026-04-23 07:38 -35.20387 138.52541 6908 ft 289 kts 281°
2026-04-23 07:38 -35.19605 138.50374 6275 ft 279 kts 310°
2026-04-23 07:38 -35.18261 138.48706 5590 ft 277 kts 316°
2026-04-23 07:38 -35.17374 138.47584 5137 ft 275 kts 316°
2026-04-23 07:39 -35.16027 138.45918 4469 ft 273 kts 317°
2026-04-23 07:39 -35.14712 138.44282 3799 ft 268 kts 317°
2026-04-23 07:39 -35.13343 138.42915 3508 ft 237 kts 328°
2026-04-23 07:39 -35.11622 138.41399 3407 ft 218 kts 327°
2026-04-23 07:40 -35.10827 138.40695 3351 ft 207 kts 327°
2026-04-23 07:40 -35.09344 138.39383 3264 ft 191 kts 328°
2026-04-23 07:40 -35.08635 138.38754 3228 ft 187 kts 328°
2026-04-23 07:40 -35.07221 138.37556 3164 ft 183 kts 339°
2026-04-23 07:41 -35.06028 138.37501 3135 ft 172 kts 21°
2026-04-23 07:41 -35.05098 138.38423 3019 ft 173 kts 46°
2026-04-23 07:41 -35.04281 138.39519 2754 ft 180 kts 45°
2026-04-23 07:41 -35.03448 138.40671 2455 ft 184 kts 47°
2026-04-23 07:42 -35.02621 138.41861 2168 ft 185 kts 47°
2026-04-23 07:42 -35.01821 138.43022 1912 ft 168 kts 47°
2026-04-23 07:42 -35.01075 138.44109 1660 ft 162 kts 47°
2026-04-23 07:42 -35.00406 138.45087 1442 ft 139 kts 47°
2026-04-23 07:43 -34.99829 138.45924 1195 ft 121 kts 47°
2026-04-23 07:43 -34.99295 138.46704 1031 ft 121 kts 48°
2026-04-23 07:43 -34.98749 138.47498 892 ft 123 kts 48°
2026-04-23 07:43 -34.98193 138.48308 742 ft 126 kts 48°
2026-04-23 07:44 -34.97625 138.49133 586 ft 128 kts 48°
2026-04-23 07:44 -34.97042 138.49982 434 ft 130 kts 49°
2026-04-23 07:44 -34.96471 138.50821 286 ft 130 kts 49°
2026-04-23 07:44 -34.95884 138.51675 94 ft 132 kts 49°
2026-04-23 07:45 -34.95499 138.52237 31 ft 124 kts 49°
2026-04-23 07:45 -34.94913 138.53085 31 ft 75 kts 49°
2026-04-23 07:45 -34.94631 138.53496 35 ft 53 kts 50°
2026-04-23 07:45 -34.94431 138.53786 35 ft 35 kts 52°
2026-04-23 07:46 -34.94315 138.53960 35 ft 25 kts 51°
2026-04-23 07:46 -34.94221 138.54050 37 ft 12 kts 330°
2026-04-23 07:46 -34.94192 138.54019 38 ft 6 kts 321°
2026-04-23 07:46 -34.94116 138.53941 38 ft 9 kts 302°
2026-04-23 07:47 -34.94156 138.53853 38 ft 15 kts 229°
2026-04-23 07:47 -34.94262 138.53697 36 ft 19 kts 230°
2026-04-23 07:47 -34.94352 138.53567 35 ft 20 kts 229°
2026-04-23 07:47 -34.94443 138.53435 35 ft 20 kts 229°
2026-04-23 07:48 -34.94519 138.53293 35 ft 19 kts 258°
2026-04-23 07:48 -34.94497 138.53189 34 ft 19 kts 300°
2026-04-23 07:48 -34.94422 138.53050 33 ft 20 kts 303°
2026-04-23 07:48 -34.94278 138.52919 31 ft 20 kts
2026-04-23 07:49 -34.94187 138.52956 33 ft 11 kts 57°
2026-04-23 07:49 -34.94144 138.53015 34 ft 5 kts 45°
2026-04-23 07:49 -34.94138 138.53023 34 ft 0 kts 45°